Погода Ерофей Павлович

Погода Ерофей Павлович : погода сейчас, прогноз погоды и архив. Всё, что Вы хотите узнать о погоде Ерофей Павлович!

Хотите узнать прогноз погоды Ерофей Павлович? Тогда Вам сюда: Погода Ерофей Павлович

Поиск расширенной информации на нашем сайте:

Другие новости

Новости СМИ2

Главная страница сайта

Новости сайта

03.07.2017

Напоминаем, что на нашем специализированном сайте Метеоцентр.Азия вы можете получить высокодетализированные автоматические прогнозы погоды по пунктам России, СНГ и мира в авиационном формате (включающие направление и скорость ветра, видимость, явления погоды, количество и форму облачности, нижнюю и верхнюю границу облачности).

Рекомендуем: купить квартиру в Челябинске

Погода Ерофей Павлович - сегодня

Время (UTC), дата Ветер
(°,м/с) 
Видим.   Явления Облачность Т
(°С)
Тd
(°С)
f(%) Тe
(°С)
Pmin
(гПа)
dP
(гПа)
Po
(мм)
O2
(г/м3)
Тmin Tmax R s Состояние
почвы
09 18.09.17 тихо ()   20000 м    8/3 1000 м верхняя 
[Sc diur, vesp|Ci]
+13.1 +10.6 85 +16  1001.8  -0.6  706  270           
15 18.09.17 тихо ()   н/о    ясно 
+5.6 +4.9 95 +6  1005.8  0.9  708  279           
18 18.09.17 310 (СЗ) н/о    ясно 
+6.1 +3.2 82 +5  1007  1.3  709  279           
21 18.09.17 тихо ()   20000 м    9/3 1000 м кучево-дожд., средняя 
[Cb cap|Ac As]
+5.8 +3.2 83 +6  1008.9  1.6  710  280           
00 19.09.17 340 (С) 20000 м    9/1 1000 м средняя 
[Sc|Ac As]
+7 +2.1 71 +8  1010  1.4  711  279  +5.1        влажная 
06 19.09.17 320 (СЗ) 20000 м    8/1 1000 м верхняя 
[Cu hum|Ci]
+14.2 -0.1 37 +14  1007.8  -0.8  711  272           
09 19.09.17 280 (З) 20000 м    8/4 1000 м кучево-дожд., средняя, верхняя 
[Cb cap|Ac lent|Ci]
+12 -4 32 +12  1009.1  0.8  711  275           
12 19.09.17 тихо ()   н/о    ясно 
+6.1 -1.1 60 +6  1011.3  0.9  712  281    +14.3       
15 19.09.17 тихо ()   н/о    ясно 
+0.6 -2.7 79 +1  1013.3  0.6  712  287           
18 19.09.17 тихо ()   н/о    ясно 
-1.7 -4.3 82 -2  1013.9  0.1  713  289           
21 19.09.17 тихо ()   20000 м    10/9 1000 м верхняя 
[Sc|Ci]
-1.2 -3.4 85 -1  1013.3  -0.5  712  288           
00 20.09.17 тихо ()   20000 м    8/4 1000 м верхняя 
[Sc|Ci sp]
+3.5 -1.2 71 +4  1011.9  -0.3  712  283  -2.6        влажная 
03 20.09.17 040 (СВ) 20000 м    3/0 средняя 
[Ac trans]
+12.8 -0.6 40 +14  1008  -1.7  711  273           
06 20.09.17 120 (ЮВ) 20000 м    4/0 кучево-дожд., верхняя 
[Cb calv|Ci sp]
+16.3 -0.4 32 +18  1005.2  -0.9  709  270           
09 20.09.17 110 (В) 20000 м    8/3 1000 м средняя, верхняя 
[Sc|Ac lent|Ci]
+15.1 +2.3 42 +16  1005.1  -0.3  709  270           
12 20.09.17 тихо ()   н/о    10/5 1000 м средняя 
[Sc|Ac As]
+11.9 -0.4 43 +12  1006.4  0.5  709  274    +17.3       
15 20.09.17 тихо ()   н/о    10/0 средняя, верхняя 
[Ac As|Ci]
+8.7 +3.6 70 +9  1006.5  -0.5  709  276           
18 20.09.17 060 (СВ) н/о    4/0 средняя 
[Ac lent]
+9.1 +3.3 67 +10  1005.7  -0.7  708  276           
21 20.09.17 тихо ()   20000 м    10/3 600 м кучево-дожд., средняя, верхняя 
[Cb cap|Ac lent|Ci]
+5.9 +1.4 73 +6  1005.7  -0.7  708  279           
00 21.09.17 060 (СВ) 20000 м    10/3 600 м кучево-дожд., верхняя 
[Cb cap|Ci]
+9.8 +1.4 56 +9  1004.2  -0.5  708  275  +5.4        влажная 
03 21.09.17 080 (В) 20000 м    8/1 1000 м верхняя 
[Sc|Ci fib]
+14.5 +0.7 39 +15  1001.2  -1.9  706  270           
06 21.09.17 070 (В) 20000 м    10/0 верхняя 
[Cs]
+18.9 +0.7 29 +20  997.8  -2.3  704  265           
09 21.09.17 080 (В) 20000 м  осадки на расстоянии  10/5 600 м кучево-дожд., средняя, верхняя 
[Cb cap|Ac lent|Cs]
+17.5 +1 33 +18  997.4  -0.7  704  266           
12 21.09.17 070 (В) н/о    10/10 600 м кучево-дожд. 
[Cb cap]
+14.1 -0.3 37 +15  998.4  0.3  704  270    +19.1       
15 21.09.17 050 (СВ) н/о    10/10 600 м кучево-дожд. 
[Cb cap]
+12.8 +3.1 52 +12  997.6  -0.9  703  270           
Время (UTC), дата Ветер
(°,м/с) 
Видим.   Явления Облачность Т
(°С)
Тd
(°С)
f(%) Тe
(°С)
Pmin
(гПа)
dP
(гПа)
Po
(мм)
O2
(г/м3)
Тmin Tmax R s Состояние
почвы

Для получения пояснительной информации подведите курсор к названию столбца.

ПОГОДА Ерофей Павлович - архив

Всё, что Вы хотите узнать о погоде Ерофей Павлович - удобно и подробно!

Выберите нужную дату (начиная с 1 января 2015* года) и нажмите кнопку "Найти".
Будут отображены архивные сводки погоды по пункту Ерофей Павлович, начиная с указанной даты.


Отображать данные в формате CSV (для использования в таблицах Excel)


Внимание! Наш архив погоды предназначен исключительно для личного некоммерческого использования в познавательных целях. Если Вам необходимы официальные справки о состоянии погоды (для производственных, юридических, коммерческих и т.п. целей), обращайтесь в органы Росгидромета.

*Примечание: данная дата относится к архиву по метеостанциям СССР (Россия, СНГ, Балтия).
Архив по метеостанциям Зарубежной Европы и Азии (кроме Китая) хранится 10 дней, по другим регионам земного шара (Китай, Африка, Америка, Австралия, Океания) - 1 день.

Ерофей Павлович - район местоположения метеостанции


Название, широта, долгота, высота метеостанции:
Ерофей Павлович 54°ш. 121.9°д. 522 м над ур. моря [Российская Федерация]

Дополнительная информация

В oтличие oт бoльшинства пoгoдных сайтoв мы публикуем пoдрoбную метеoинфoрмацию в детальнoм прoфессиoнальнoм фoрмате.

Характеристики температуры и влажнoсти вoздуха измеряются на высoте 2 м в тени вдали oт зданий и деревьев.
Скoрoсть ветра измеряется на высoте 10 м (на урoвне рoста челoвека скoрoсть ветра ниже в 1.5-2 раза). Если метеoстанция нахoдится в гoрoде или в лесу, тo скoрoсть ветра занижена на 2-4 м/с пo сравнению с oткрытым местoм. Скoрoсть ветра над акватoриями крупных рек и oзёр, а также на вершинах хoлмoв на 2-5 м/с выше, чем в oбычных услoвиях.
Атмoсфернoе давление в разных тoчках местнoсти мoжет значительнo oтличаться oт давления на метеoстанции, в зависимoсти oт услoвий рельефа (при пoдъёме на 10 м давление пoнижается примернo на 1 мм рт.ст.).